Location: Kerentrech
(47.7567°N, 3.3595°W)
Time: 09:13:40
(UTC+00:00)

PSLV R/B - Pass Details

Date: 17 February 2020
Orbit: 505 x 579 km, 97.8° (Epoch: 27 March)

Event Time Altitude Azimuth Distance (km) Brightness Sun altitude
Rises 05:22:53 0° 15° (NNE) 2,623 7.5 -19.8°
Reaches altitude 10° 05:24:59 10° 18° (NNE) 1,736 6.6 -19.5°
Maximum altitude 05:28:42 68° 102° (ESE) 558 4.0 -18.8°
Drops below altitude 10° 05:32:27 10° 186° (S) 1,748 6.3 -18.2°
Sets 05:34:34 0° 189° (S) 2,641 7.2 -17.8°
